Date,TemperatureHighF,TemperatureAvgF,TemperatureLowF,DewpointHighF,DewpointAvgF,DewpointLowF,HumidityHigh,HumidityAvg,HumidityLow,PressureMaxIn,PressureMinIn,WindSpeedMaxMPH,WindSpeedAvgMPH,GustSpeedMaxMPH,PrecipitationSumIn
2013-1-1,36.3,31.4,20.2,27.0,21.2,9.0,79,66,53,29.98,29.80,0,0,0,0.00
2013-1-2,29.2,22.5,14.7,16.0,11.8,7.0,78,64,54,30.14,29.96,0,0,0,0.00
2013-1-3,26.4,18.3,7.7,16.0,6.3,-3.0,70,60,41,30.18,30.04,14,2,0,0.00
2013-1-4,36.2,29.7,20.2,26.0,21.7,14.0,82,72,64,30.04,29.89,16,6,0,0.00
2013-1-5,40.0,32.7,24.4,26.0,22.1,18.0,80,66,53,30.28,29.93,19,5,0,0.00
2013-1-6,42.7,32.7,24.4,33.0,27.9,19.0,95,83,63,30.24,29.97,12,3,0,0.00
2013-1-7,40.3,33.8,23.1,30.0,25.3,19.0,88,71,54,30.41,30.01,18,5,0,0.00
2013-1-8,45.5,34.0,19.4,33.0,27.7,17.0,96,79,60,30.42,30.32,20,5,0,0.00
2013-1-9,44.1,34.2,22.2,39.0,30.6,21.0,96,87,71,30.40,30.08,15,4,0,0.00
2013-1-10,44.5,39.7,29.5,36.0,26.9,24.0,81,61,47,30.55,30.14,25,9,0,0.00
2013-1-11,39.8,32.3,24.4,39.0,29.0,22.0,98,88,77,30.54,30.19,6,1,0,0.15
2013-1-12,44.0,41.5,39.7,44.0,41.4,39.0,99,99,98,30.20,30.13,6,0,0,0.02
2013-1-13,51.5,45.4,40.2,51.0,45.1,40.0,100,98,92,30.17,30.03,12,4,0,0.02
2013-1-14,56.5,47.6,35.8,54.0,43.0,30.0,100,85,58,30.29,29.93,23,8,0,0.00
2013-1-15,39.0,35.3,32.8,32.0,29.5,27.0,93,79,68,30.34,30.22,8,2,0,0.04
2013-1-16,34.1,32.5,30.5,33.0,31.3,27.0,98,95,76,30.25,29.82,8,1,0,0.04
2013-1-17,40.7,34.1,30.0,33.0,28.5,20.0,98,81,61,30.11,29.88,20,5,0,0.35
2013-1-18,30.1,23.2,18.4,20.0,7.2,1.0,67,51,39,30.49,30.05,23,8,0,0.35
2013-1-19,42.9,35.4,20.2,35.0,26.2,10.0,81,70,55,30.41,29.94,29,11,0,0.00
2013-1-20,51.1,41.5,28.3,35.0,28.4,11.0,79,61,31,29.97,29.63,29,11,0,0.00
2013-1-21,28.1,25.0,19.1,24.0,15.8,10.0,94,70,49,30.12,29.80,17,2,0,0.00
2013-1-22,23.8,19.2,12.3,22.0,6.2,-3.0,95,59,37,30.13,29.78,22,9,0,0.00
2013-1-23,16.9,11.5,6.9,-1.0,-3.2,-6.0,66,52,41,30.20,30.11,21,7,0,0.00
2013-1-24,18.9,11.4,3.5,2.0,-3.9,-7.0,68,52,35,30.31,30.15,30,10,0,0.00
2013-1-25,22.0,16.5,10.1,15.0,1.7,-3.0,89,54,37,30.37,30.07,16,5,0,0.00
2013-1-26,24.5,17.4,11.4,14.0,8.1,3.0,90,69,47,30.31,30.03,17,6,0,0.00
2013-1-27,31.1,21.6,13.9,9.0,4.6,0.0,75,50,31,30.50,30.31,17,6,0,0.00
2013-1-28,31.6,26.1,18.9,31.0,17.6,0.0,98,73,40,30.49,30.01,11,2,0,0.00
2013-1-29,35.1,32.5,29.2,34.0,31.8,29.0,98,97,94,30.19,30.01,10,1,0,0.07
2013-1-30,57.0,48.8,34.6,56.0,48.5,34.0,100,99,97,30.16,29.48,30,12,0,0.07
2013-1-31,60.6,47.2,30.3,59.0,36.2,13.0,97,68,39,29.65,29.04,40,20,0,0.81
2013-2-1,30.6,26.7,21.0,18.0,11.6,6.0,63,53,41,30.15,29.66,26,11,0,0.00
2013-2-2,29.6,23.9,17.6,19.0,11.7,7.0,83,61,45,30.29,30.08,22,7,0,0.00
2013-2-3,30.4,24.3,18.1,20.0,17.9,16.0,92,77,62,30.08,29.77,9,2,0,0.00
2013-2-4,29.9,24.6,20.0,17.0,11.8,8.0,79,60,42,29.98,29.77,23,7,0,0.00
2013-2-5,25.4,23.7,22.5,23.0,18.0,8.0,94,80,53,30.04,29.94,4,0,0,0.00
2013-2-6,37.2,30.0,24.7,28.0,19.8,4.0,95,69,38,30.34,29.93,15,5,0,0.00
2013-2-7,32.4,25.2,18.5,16.0,9.9,5.0,61,53,39,30.54,30.34,12,4,0,0.00
2013-2-8,31.7,28.2,21.5,31.0,25.6,12.0,98,90,59,30.45,29.57,33,10,0,0.00
2013-2-9,21.7,20.0,15.7,21.0,18.6,12.0,97,94,84,30.26,29.60,30,16,0,0.00
2013-2-10,33.0,21.3,10.0,18.0,9.6,3.0,86,63,34,30.46,30.27,11,2,0,0.09
2013-2-11,45.6,34.2,18.2,45.0,32.1,11.0,99,92,69,30.37,29.66,15,4,0,0.43
2013-2-12,43.3,38.8,34.4,41.0,31.0,27.0,100,75,57,29.94,29.68,19,7,0,0.43
2013-2-13,43.1,36.0,31.6,27.0,25.2,22.0,76,65,49,29.91,29.68,12,2,0,0.00
2013-2-14,43.2,35.0,28.7,29.0,25.6,22.0,93,71,44,30.02,29.73,12,3,0,0.00
2013-2-15,46.8,38.5,31.0,37.0,34.4,28.0,97,86,67,30.03,29.93,15,6,0,0.00
2013-2-16,35.8,33.8,28.3,35.0,29.4,22.0,97,84,62,29.96,29.70,20,6,0,0.00
2013-2-17,27.9,22.0,15.3,24.0,9.2,2.0,92,60,42,29.80,29.50,37,17,0,0.00
2013-2-18,29.9,21.6,14.3,8.0,3.6,1.0,61,47,31,30.22,29.81,30,12,0,0.00
2013-2-19,44.9,34.9,18.6,44.0,28.5,9.0,98,78,55,30.23,29.62,23,6,0,0.16
2013-2-20,39.8,30.8,24.5,39.0,19.3,10.0,95,64,48,29.86,29.61,23,11,0,0.16
2013-2-21,29.6,25.1,22.4,16.0,14.4,13.0,73,64,56,30.27,29.86,26,12,0,0.00
2013-2-22,39.5,30.8,22.7,28.0,22.6,16.0,83,72,52,30.41,30.26,14,4,0,0.00
2013-2-23,37.0,33.8,31.8,34.0,31.4,27.0,98,91,80,30.33,29.85,8,0,0,0.00
2013-2-24,38.3,35.5,32.2,37.0,34.7,31.0,98,96,94,29.92,29.71,0,0,0,0.04
2013-2-25,40.0,35.2,29.6,32.0,30.5,27.0,94,83,70,30.26,29.91,0,0,0,0.05
2013-2-26,39.8,35.6,32.4,34.0,30.6,26.0,93,82,63,30.34,30.10,0,0,0,0.00
2013-2-27,42.6,39.6,34.5,42.0,38.9,32.0,98,97,91,30.09,29.59,0,0,0,0.76
2013-2-28,43.4,38.1,34.0,42.0,37.0,34.0,99,96,89,29.65,29.54,0,0,0,0.80
2013-3-1,45.4,38.9,33.5,35.0,31.6,28.0,96,76,57,29.72,29.55,0,0,0,0.00
2013-3-2,38.1,35.3,32.8,30.0,28.0,27.0,85,75,68,29.72,29.65,0,0,0,0.00
2013-3-3,36.5,31.5,28.7,28.0,26.1,24.0,91,81,67,29.68,29.61,0,0,0,0.00
2013-3-4,37.3,31.2,26.4,26.0,23.3,21.0,81,73,60,29.79,29.66,0,0,0,0.00
2013-3-5,45.8,36.1,28.1,31.0,26.8,22.0,80,70,55,30.07,29.80,0,0,0,0.00
2013-3-6,40.5,36.4,33.4,36.0,33.1,29.0,96,87,75,30.04,29.96,0,0,0,0.00
2013-3-7,36.6,33.7,31.0,31.0,30.0,28.0,97,86,76,30.02,29.95,0,0,0,0.00
2013-3-8,35.1,32.1,30.4,34.0,31.6,30.0,99,98,94,30.15,29.94,0,0,0,0.00
2013-3-9,52.2,40.4,31.0,33.0,24.1,15.0,95,59,24,30.35,30.15,0,0,0,0.19
2013-3-10,50.3,35.8,26.7,35.0,30.0,25.0,95,81,48,30.41,30.32,13,2,0,0.19
2013-3-11,48.4,42.0,34.8,42.0,39.0,34.0,97,89,75,30.35,30.16,17,7,0,0.00
2013-3-12,53.1,48.8,41.3,53.0,47.8,41.0,98,96,89,30.16,29.73,30,14,0,0.83
2013-3-13,48.7,41.6,35.5,41.0,29.9,25.0,92,65,42,29.83,29.75,19,9,0,0.83
2013-3-14,37.9,30.5,26.9,28.0,19.5,12.0,92,65,47,29.88,29.78,26,11,0,0.00
2013-3-15,40.9,32.1,24.9,30.0,18.4,9.0,82,58,37,29.92,29.71,30,10,0,0.00
2013-3-16,37.8,33.6,28.8,30.0,20.0,10.0,86,60,35,29.89,29.75,14,4,0,0.00
2013-3-17,36.4,31.2,25.4,29.0,14.2,8.0,87,52,31,30.31,29.89,20,8,0,0.00
2013-3-18,36.4,28.6,19.2,28.0,13.0,3.0,96,55,27,30.46,30.18,14,4,0,0.00
2013-3-19,37.0,32.8,29.0,37.0,32.3,28.0,98,97,96,30.17,29.62,18,7,0,0.45
2013-3-20,39.2,33.1,27.7,32.0,22.1,18.0,98,66,44,29.83,29.73,24,8,0,0.01
2013-3-21,35.2,30.4,27.9,28.0,23.8,18.0,90,77,60,29.84,29.64,13,4,0,0.01
2013-3-22,38.8,32.1,24.7,25.0,19.4,14.0,72,60,49,29.81,29.66,17,8,0,0.00
2013-3-23,42.2,36.0,31.4,27.0,22.9,19.0,77,60,42,29.86,29.72,24,11,0,0.00
2013-3-24,46.1,37.8,29.9,29.0,24.8,21.0,78,61,44,29.89,29.73,17,6,0,0.00
2013-3-25,43.1,37.1,30.4,33.0,29.4,26.0,92,74,61,29.77,29.47,16,7,0,0.00
2013-3-26,46.8,39.4,35.4,32.0,27.5,21.0,79,64,43,29.82,29.54,15,5,0,0.00
2013-3-27,51.4,41.8,32.4,30.0,25.3,21.0,66,53,37,29.91,29.80,19,7,0,0.00
2013-3-28,48.2,42.0,36.0,37.0,32.5,29.0,87,70,51,30.06,29.90,14,5,0,0.00
2013-3-29,55.2,46.2,37.6,36.0,32.4,29.0,82,61,39,30.09,30.00,15,7,0,0.00
2013-3-30,55.4,46.4,36.5,33.0,26.1,19.0,79,49,25,30.12,30.03,17,6,0,0.00
2013-3-31,55.9,43.6,27.7,44.0,30.9,21.0,96,64,35,30.14,29.68,33,8,0,0.00
2013-4-1,59.2,46.9,33.7,48.0,40.2,20.0,97,79,52,29.84,29.56,25,9,0,0.05
2013-4-2,40.4,34.0,26.4,21.0,15.5,10.0,74,48,30,30.01,29.84,25,8,0,0.05
2013-4-3,43.0,35.5,29.1,18.0,15.0,12.0,56,44,31,30.24,30.01,23,11,0,0.00
2013-4-4,51.9,38.9,29.2,33.0,22.4,15.0,84,54,29,30.36,30.10,18,8,0,0.00
2013-4-5,58.9,45.1,37.3,36.0,28.6,14.0,84,58,21,30.10,29.67,26,8,0,0.00
2013-4-6,46.9,38.8,32.3,27.0,15.6,7.0,69,42,21,30.34,29.92,26,8,0,0.00
2013-4-7,52.5,43.0,27.1,43.0,33.9,20.0,90,71,49,30.34,30.05,28,12,0,0.00
2013-4-8,67.0,53.2,41.3,45.0,41.5,38.0,97,69,36,30.09,29.99,16,4,0,0.00
2013-4-9,73.2,59.1,46.0,55.0,46.2,41.0,98,67,37,30.07,29.88,24,7,0,0.00
2013-4-10,65.8,53.0,46.7,54.0,48.3,44.0,97,85,62,29.99,29.85,24,6,0,0.00
2013-4-11,57.9,50.7,45.0,49.0,45.6,39.0,98,83,61,30.11,29.82,11,5,0,0.01
2013-4-12,44.9,40.3,37.9,38.0,36.3,31.0,97,86,67,30.12,29.76,19,8,0,0.00
2013-4-13,52.6,44.5,36.9,40.0,36.8,35.0,96,76,52,29.95,29.74,20,6,0,0.01
2013-4-14,50.9,45.0,39.5,40.0,33.9,26.0,93,67,46,30.25,29.95,17,5,0,0.00
2013-4-15,55.0,43.6,34.2,39.0,32.8,27.0,92,67,47,30.42,30.24,16,4,0,0.00
2013-4-16,59.8,49.0,34.1,51.0,44.7,33.0,98,86,67,30.42,30.13,25,10,0,0.00
2013-4-17,65.9,56.7,44.1,53.0,41.6,32.0,91,61,30,30.34,30.11,17,7,0,0.00
2013-4-18,58.2,49.0,36.6,49.0,39.8,34.0,97,74,42,30.41,30.16,26,10,0,0.00
2013-4-19,68.7,59.5,51.2,63.0,58.1,49.0,99,95,82,30.16,29.69,30,14,0,0.03
2013-4-20,61.5,52.0,42.2,61.0,40.8,28.0,98,70,37,30.26,29.64,28,9,0,0.33
2013-4-21,53.1,41.8,32.9,32.0,25.3,21.0,80,54,30,30.67,30.27,18,8,0,0.00
2013-4-22,53.2,43.2,32.0,36.0,31.9,28.0,95,67,39,30.73,30.57,21,7,0,0.00
2013-4-23,43.5,40.8,37.7,41.0,37.7,32.0,94,89,78,30.57,30.09,17,8,0,0.00
2013-4-24,69.4,52.2,42.0,51.0,45.0,40.0,97,79,45,30.08,29.87,21,10,0,0.00
2013-4-25,60.3,52.5,44.7,51.0,35.8,22.0,97,59,24,30.28,29.89,17,8,0,0.01
2013-4-26,61.3,49.5,33.4,41.0,34.7,24.0,85,59,35,30.42,30.28,18,5,0,0.00
2013-4-27,62.7,49.1,35.7,46.0,40.3,35.0,97,75,36,30.43,30.32,20,4,0,0.00
2013-4-28,64.8,50.6,35.9,46.0,39.4,32.0,98,70,37,30.35,30.25,18,6,0,0.00
2013-4-29,61.3,52.2,44.7,50.0,41.8,31.0,97,71,36,30.29,30.24,21,6,0,0.00
2013-4-30,65.4,54.2,44.4,42.0,35.4,28.0,83,52,27,30.36,30.26,19,4,0,0.00
2013-5-1,68.5,52.6,35.5,51.0,40.3,28.0,86,65,38,30.50,30.36,17,4,0,0.00
2013-5-2,74.4,56.9,40.1,51.0,44.5,36.0,97,67,37,30.47,30.33,17,4,0,0.00
2013-5-3,62.8,53.6,43.4,48.0,42.1,36.0,82,66,55,30.49,30.37,13,6,0,0.00
2013-5-4,65.9,53.5,40.8,48.0,38.1,22.0,94,61,25,30.38,30.26,11,3,0,0.00
2013-5-5,64.8,48.8,35.2,49.0,41.0,34.0,97,77,42,30.32,30.22,15,4,0,0.00
2013-5-6,68.9,54.9,44.4,55.0,47.2,41.0,90,76,52,30.29,30.16,18,4,0,0.00
2013-5-7,72.4,58.4,41.8,62.0,52.6,41.0,98,82,62,30.19,30.12,21,4,0,0.00
2013-5-8,67.8,60.0,53.7,63.0,58.5,53.0,99,95,82,30.18,30.04,25,7,0,0.19
2013-5-9,64.4,57.8,53.8,61.0,56.8,54.0,99,96,85,30.05,29.88,9,1,0,0.10
2013-5-10,77.6,64.2,51.0,61.0,56.3,51.0,99,78,44,29.98,29.92,14,4,0,0.10
2013-5-11,65.8,60.3,55.7,63.0,58.9,54.0,98,95,87,29.93,29.70,20,9,0,0.30
2013-5-12,68.5,59.5,49.0,59.0,51.5,32.0,99,77,49,29.85,29.61,24,5,0,0.31
2013-5-13,56.5,48.8,41.7,37.0,32.7,30.0,78,55,39,30.06,29.85,15,6,0,0.00
2013-5-14,56.8,47.9,39.0,36.0,32.3,30.0,79,56,40,30.09,30.02,18,4,0,0.00
2013-5-15,60.8,47.6,31.3,54.0,42.3,30.0,97,84,50,30.10,29.72,25,7,0,0.00
2013-5-16,78.9,63.6,42.5,54.0,48.9,42.0,99,64,29,29.82,29.69,18,5,0,0.00
2013-5-17,68.8,59.8,49.2,50.0,43.4,38.0,92,57,36,30.23,29.82,15,6,0,0.00
2013-5-18,68.8,56.0,41.4,54.0,47.6,41.0,98,76,43,30.33,30.23,16,4,0,0.00
2013-5-19,62.3,54.0,45.4,56.0,51.7,44.0,100,92,78,30.37,30.22,16,5,0,0.17
2013-5-20,80.0,66.3,56.0,69.0,62.6,56.0,99,89,63,30.21,29.95,13,4,0,0.19
2013-5-21,84.5,69.5,55.0,73.0,64.9,54.0,99,86,65,29.98,29.83,18,6,0,0.00
2013-5-22,78.4,62.1,51.8,71.0,60.2,51.0,98,93,79,29.99,29.86,11,-17,0,0.01
2013-5-23,74.4,66.3,63.1,70.0,65.2,63.0,100,96,85,29.93,29.81,23,11,0,0.21
2013-5-24,70.8,60.8,46.0,65.0,58.5,45.0,99,92,81,29.86,29.68,17,2,0,0.03
2013-5-25,48.0,45.6,41.8,47.0,44.2,40.0,98,95,90,29.84,29.78,0,0,0,0.05
2013-5-26,57.8,49.0,41.9,48.0,43.1,40.0,93,80,61,30.17,29.81,0,-156,0,0.05
2013-5-27,71.1,57.4,41.3,45.0,41.6,38.0,94,60,33,30.20,30.11,0,-250,0,0.00
2013-5-28,72.1,57.5,40.9,57.0,48.9,40.0,98,76,43,30.24,30.18,0,0,0,0.00
2013-5-29,76.0,64.7,56.7,69.0,62.2,56.0,99,92,76,30.19,30.01,0,0,0,0.35
2013-5-30,88.1,74.5,59.8,72.0,67.0,59.0,99,80,50,30.12,30.04,0,0,0,0.45
2013-5-31,89.3,77.2,64.3,74.0,67.6,63.0,98,74,50,30.11,29.99,0,0,0,0.00
2013-6-1,85.8,75.0,63.0,73.0,67.4,61.0,95,78,60,30.01,29.91,0,0,0,0.00
2013-6-2,81.9,71.8,64.3,72.0,66.9,63.0,96,85,68,29.93,29.80,0,0,0,0.00
2013-6-3,76.2,67.1,63.1,69.0,64.9,52.0,99,93,68,29.86,29.79,0,0,0,0.61
2013-6-4,69.2,60.7,51.9,51.0,45.7,39.0,70,58,48,30.10,29.87,0,-197,0,0.61
2013-6-5,72.1,60.7,46.9,55.0,50.4,46.0,97,71,46,30.22,30.10,0,-28,0,0.00
2013-6-6,68.2,57.8,49.3,61.0,54.0,48.0,99,88,62,30.20,30.09,0,-174,0,0.00
2013-6-7,60.1,57.3,54.6,60.0,56.6,54.0,100,98,95,30.09,29.75,0,0,0,2.55
2013-6-8,75.4,63.7,53.4,66.0,59.5,53.0,99,87,69,30.03,29.59,0,0,0,0.01
2013-6-9,77.4,67.5,55.1,61.0,58.5,53.0,96,75,51,30.18,30.04,0,-221,0,0.01
2013-6-10,69.5,62.6,54.6,65.0,59.8,54.0,98,91,76,30.19,29.95,0,0,0,0.45
2013-6-11,75.8,63.9,58.6,69.0,62.7,58.0,100,95,77,29.94,29.57,0,0,0,0.81
2013-6-12,69.4,63.4,56.1,61.0,55.4,52.0,93,76,59,29.85,29.62,0,0,0,0.82
2013-6-13,59.2,55.0,49.7,57.0,53.9,49.0,98,96,90,29.84,29.59,0,0,0,0.72
2013-6-14,70.9,58.8,51.4,58.0,53.8,51.0,98,85,61,29.82,29.58,0,0,0,0.02
2013-6-15,76.0,66.7,57.5,57.0,53.5,46.0,89,66,35,29.97,29.83,0,0,0,0.02
2013-6-16,75.2,64.9,50.0,66.0,58.7,49.0,97,82,56,29.98,29.76,0,0,0,0.00
2013-6-17,82.1,69.9,59.7,69.0,63.6,59.0,97,82,56,29.93,29.82,0,-62,0,0.04
2013-6-18,78.2,64.9,56.9,70.0,62.0,56.0,99,91,66,29.94,29.84,0,-271,0,0.68
2013-6-19,73.9,64.0,53.6,59.0,54.5,47.0,98,75,38,30.16,29.89,0,-62,0,0.68
2013-6-20,76.4,63.7,48.6,60.0,54.6,48.0,98,75,47,30.28,30.16,0,-395,0,0.00
2013-6-21,79.6,67.3,54.9,69.0,60.0,53.0,95,78,63,30.29,30.23,0,-404,0,0.00
2013-6-22,80.2,68.5,58.3,66.0,59.8,54.0,92,75,56,30.26,30.15,0,-999,0,0.00
2013-6-23,84.1,72.5,59.5,73.0,66.6,59.0,97,83,61,30.20,30.06,0,-553,0,0.00
2013-6-24,89.2,76.5,67.4,76.0,71.1,66.0,98,85,61,30.07,29.91,0,-580,0,0.38
2013-6-25,87.8,76.0,65.0,76.0,70.4,64.0,98,84,60,29.97,29.77,0,-572,0,0.06
2013-6-26,82.7,75.1,69.2,74.0,71.1,68.0,98,88,71,29.84,29.75,0,-770,0,0.07
2013-6-27,74.8,70.3,67.1,72.0,69.2,67.0,99,96,90,29.83,29.70,0,-999,0,0.00
2013-6-28,78.9,73.2,67.5,74.0,71.1,67.0,99,93,82,29.68,29.50,0,-937,0,0.20
2013-6-29,78.4,73.0,69.2,73.0,70.3,69.0,99,91,78,29.73,29.51,0,-999,0,0.00
2013-6-30,79.8,72.7,70.3,75.0,71.1,69.0,98,94,85,29.95,29.73,0,-999,0,0.00
2013-7-1,77.5,72.9,70.4,76.0,72.2,70.0,99,97,91,30.09,29.95,0,-999,0,0.00
2013-7-2,80.2,74.4,71.6,76.0,72.7,71.0,98,94,84,30.20,30.09,0,-999,0,0.00
2013-7-3,84.1,76.1,69.6,77.0,72.8,69.0,98,90,77,30.24,30.18,0,-999,0,0.00
2013-7-4,86.5,78.8,72.6,79.0,74.8,71.0,98,88,73,30.24,30.14,0,-999,0,0.00
2013-7-5,88.4,79.8,71.5,78.0,74.3,70.0,97,84,66,30.19,30.08,0,-999,0,0.00
2013-7-6,88.9,80.0,72.1,78.0,74.2,71.0,95,83,64,30.11,30.00,0,-999,0,0.00
2013-7-7,89.5,80.0,70.9,78.0,74.5,70.0,98,84,66,30.04,29.92,0,-999,0,0.00
2013-7-8,86.7,77.8,71.3,75.0,71.8,69.0,97,83,60,30.03,29.93,0,-999,0,0.00
2013-7-9,80.0,72.4,68.4,74.0,70.6,68.0,99,94,81,30.09,30.02,0,-999,0,0.00
2013-7-10,83.2,75.6,71.3,77.0,73.5,71.0,99,93,79,30.05,29.81,0,-999,0,0.00
2013-7-11,80.8,74.7,68.3,75.0,71.8,66.0,99,91,76,29.92,29.80,0,-999,0,0.01
2013-7-12,77.8,70.9,67.1,69.0,65.0,60.0,94,82,74,30.17,29.92,0,-999,0,0.01
2013-7-13,77.9,71.2,64.9,75.0,69.2,61.0,98,93,82,30.31,30.17,0,-999,0,0.00
2013-7-14,88.1,78.6,72.1,78.0,74.3,72.0,99,87,67,30.32,30.21,0,-999,0,0.00
2013-7-15,88.8,80.2,72.0,77.0,73.6,71.0,98,81,63,30.22,30.12,0,-999,0,0.00
2013-7-16,90.4,81.0,70.8,75.0,70.9,68.0,91,73,49,30.17,30.11,0,-999,0,0.00
2013-7-17,90.4,79.3,68.8,78.0,72.8,68.0,98,82,54,30.19,30.05,0,-999,0,0.00
2013-7-18,93.1,82.6,73.5,79.0,74.3,70.0,90,77,55,30.05,29.95,0,-999,0,0.00
2013-7-19,93.0,83.0,74.6,81.0,76.7,73.0,96,82,63,29.95,29.77,0,-999,0,0.00
2013-7-20,89.0,80.6,73.8,80.0,75.3,63.0,96,84,68,29.84,29.68,0,-999,0,0.27
2013-7-21,82.5,73.1,65.4,72.0,66.5,61.0,96,81,62,29.99,29.84,0,-999,0,0.01
2013-7-22,79.9,72.7,65.4,74.0,69.9,65.0,99,91,77,29.99,29.86,0,-999,0,0.01
2013-7-23,84.5,74.6,70.5,78.0,72.7,70.0,99,94,76,29.85,29.56,0,-999,0,0.12
2013-7-24,80.0,74.0,67.4,74.0,68.6,60.0,99,84,66,29.92,29.59,0,-999,0,0.02
2013-7-25,67.4,59.6,56.7,60.0,56.5,52.0,100,89,73,30.08,29.92,0,-999,0,2.07
2013-7-26,70.8,64.3,59.1,66.0,62.5,59.0,98,94,81,30.05,29.99,0,-999,0,2.22
2013-7-27,79.9,70.7,63.5,69.0,65.9,63.0,98,86,60,30.08,30.00,0,-999,0,0.00
2013-7-28,80.7,71.6,64.9,71.0,67.0,64.0,99,86,60,30.02,29.96,0,-999,0,0.00
2013-7-29,82.4,71.9,65.9,75.0,68.6,62.0,99,90,69,30.06,29.98,0,-999,0,0.00
2013-7-30,78.4,69.3,61.8,65.0,59.9,56.0,89,73,56,30.14,30.06,0,-999,0,0.00
2013-7-31,78.9,68.6,57.7,67.0,61.7,56.0,95,80,58,30.16,30.06,0,-999,0,0.00
2013-8-1,76.7,66.0,59.9,70.0,63.5,59.0,99,92,71,30.06,29.88,0,-999,0,0.00
2013-8-2,79.6,70.7,64.2,69.0,64.8,62.0,99,83,60,29.89,29.80,0,-999,0,0.27
2013-8-3,75.5,67.5,60.2,69.0,64.4,59.0,97,90,77,29.90,29.80,0,-999,0,0.18
2013-8-4,75.7,66.0,57.1,63.0,59.2,55.0,98,80,57,29.93,29.81,0,-999,0,0.18
2013-8-5,74.7,62.9,54.4,57.0,53.3,49.0,95,74,43,30.06,29.93,0,-999,0,0.00
2013-8-6,75.3,63.0,48.8,61.0,55.6,48.0,99,79,50,30.16,30.06,0,-999,0,0.00
2013-8-7,74.7,64.6,52.6,65.0,59.9,52.0,99,86,64,30.20,30.13,0,-999,0,0.00
2013-8-8,78.3,71.1,65.1,73.0,69.1,64.0,97,93,84,30.12,30.04,0,-999,0,0.00
2013-8-9,76.2,73.1,71.3,76.0,72.2,70.0,99,97,94,30.05,29.80,0,-999,0,0.75
2013-8-10,80.3,72.1,63.1,73.0,63.9,53.0,98,76,52,30.04,29.82,0,-999,0,0.75
2013-8-11,77.4,65.8,51.1,64.0,56.1,49.0,96,73,52,30.11,30.03,0,-658,0,0.00
2013-8-12,79.1,67.7,58.3,67.0,62.3,58.0,99,84,57,30.05,29.94,0,-999,0,0.00
2013-8-13,72.4,66.5,61.1,69.0,65.2,60.0,99,95,80,29.95,29.71,0,-999,0,0.00
2013-8-14,71.1,64.3,57.3,65.0,56.5,54.0,98,77,59,30.00,29.71,0,-999,0,0.00
2013-8-15,75.0,63.7,51.1,58.0,54.8,49.0,96,75,49,30.15,30.00,0,-999,0,0.00
2013-8-16,76.7,64.0,50.3,62.0,56.6,50.0,98,79,48,30.22,30.14,0,-999,0,0.00
2013-8-17,79.4,66.5,52.1,66.0,58.5,51.0,99,78,45,30.29,30.22,0,-648,0,0.00
2013-8-18,75.9,65.4,57.1,67.0,61.0,57.0,99,87,58,30.29,30.12,0,-999,0,0.00
2013-8-19,76.5,67.5,56.6,66.0,62.2,56.0,98,84,64,30.12,30.00,0,-999,0,0.00
2013-8-20,82.2,71.6,60.6,66.0,63.9,60.0,97,78,55,30.12,30.01,0,-645,0,0.00
2013-8-21,84.8,72.0,59.0,70.0,64.8,58.0,99,80,56,30.17,30.06,0,-999,0,0.00
2013-8-22,76.5,70.4,62.2,74.0,68.9,62.0,99,95,89,30.07,29.87,0,-999,0,0.04
2013-8-23,78.5,70.7,60.9,69.0,63.4,58.0,98,79,54,30.12,29.85,0,-999,0,0.01
2013-8-24,75.3,64.3,54.0,57.0,54.6,51.0,95,73,46,30.36,30.12,0,-999,0,0.01
2013-8-25,79.8,65.0,48.9,64.0,55.5,48.0,99,76,36,30.39,30.23,0,-708,0,0.00
2013-8-26,76.2,68.1,62.7,68.0,63.5,59.0,97,85,73,30.23,29.92,0,-999,0,0.26
2013-8-27,80.9,71.7,67.5,73.0,69.5,67.0,99,93,75,29.92,29.83,0,-999,0,1.96
2013-8-28,81.4,70.7,66.0,74.0,69.1,66.0,99,95,76,29.93,29.85,0,-999,0,0.53
2013-8-29,70.5,66.2,60.9,68.0,64.6,60.0,99,95,86,30.06,29.93,0,-999,0,0.01
2013-8-30,79.1,67.4,59.1,71.0,65.0,58.0,99,92,74,30.04,29.87,0,-999,0,0.01
2013-8-31,78.4,72.9,68.4,74.0,71.3,68.0,99,95,86,29.87,29.81,0,-999,0,0.00
2013-9-1,80.2,73.8,70.4,76.0,72.5,70.0,99,96,84,29.88,29.82,0,-999,0,0.08
2013-9-2,77.8,73.1,70.7,76.0,72.2,69.0,100,97,80,29.85,29.71,0,-989,0,0.01
2013-9-3,74.8,70.0,62.3,72.0,68.1,58.0,99,93,82,29.86,29.70,0,-999,0,0.31
2013-9-4,77.3,66.9,58.5,63.0,59.7,57.0,94,79,52,29.95,29.85,0,-999,0,0.31
2013-9-5,72.2,62.4,49.4,63.0,55.9,47.0,98,80,52,30.14,29.90,0,-999,0,0.00
2013-9-6,66.8,55.6,45.4,52.0,47.4,43.0,95,76,49,30.27,30.14,0,-999,0,0.00
2013-9-7,74.8,60.4,44.0,61.0,52.6,43.0,99,78,48,30.14,29.90,0,-999,0,0.00
2013-9-8,74.4,64.8,52.5,64.0,56.4,44.0,96,76,44,30.09,29.80,0,-999,0,0.00
2013-9-9,68.3,55.7,41.5,53.0,47.6,40.0,97,76,50,30.26,30.10,0,-999,0,0.00
2013-9-10,74.5,66.5,54.7,72.0,64.8,53.0,98,94,89,30.19,30.03,0,-999,0,0.02
2013-9-11,90.2,76.6,67.5,81.0,73.2,67.0,99,90,72,30.11,29.99,0,-999,0,0.00
2013-9-12,82.7,73.7,68.7,75.0,71.3,68.0,99,92,75,29.99,29.69,0,-770,0,0.43
2013-9-13,76.6,68.4,58.9,68.0,64.4,56.0,99,88,68,29.79,29.61,0,-728,0,0.01
2013-9-14,65.3,57.8,51.6,55.0,52.7,49.0,95,83,68,30.09,29.78,0,-541,0,0.01
2013-9-15,68.0,56.7,44.9,54.0,49.8,43.0,97,79,49,30.20,30.09,0,-568,0,0.00
2013-9-16,66.5,57.6,48.7,58.0,53.4,39.0,98,86,67,30.25,30.05,0,-749,0,0.00
2013-9-17,61.0,49.5,39.5,45.0,40.4,37.0,96,73,48,30.43,30.26,0,-548,0,0.00
2013-9-18,70.5,53.2,35.9,54.0,45.8,35.0,99,79,44,30.36,30.19,0,-536,0,0.00
2013-9-19,75.8,59.7,43.8,60.0,52.2,43.0,98,79,46,30.19,30.08,0,-510,0,0.00
2013-9-20,76.6,59.5,44.0,62.0,53.8,44.0,99,84,53,30.12,30.03,0,-541,0,0.00
2013-9-21,72.8,62.4,50.4,68.0,60.6,50.0,99,94,81,30.05,29.73,0,-614,0,0.00
2013-9-22,69.3,62.0,50.4,68.0,56.5,45.0,98,83,61,29.86,29.65,0,-770,0,0.46
2013-9-23,62.3,52.4,45.3,49.0,45.0,42.0,91,77,58,30.04,29.86,0,-599,0,0.00
2013-9-24,66.8,52.4,41.3,48.0,44.6,39.0,94,77,49,30.04,29.85,0,-568,0,0.00
2013-9-25,68.8,56.5,42.7,55.0,49.7,42.0,98,80,56,29.99,29.89,0,-541,0,0.00
2013-9-26,65.1,57.3,47.2,54.0,50.9,46.0,97,80,59,30.13,29.98,0,-478,0,0.00
2013-9-27,63.9,56.0,48.7,56.0,52.5,48.0,98,88,69,30.28,30.13,0,-801,0,0.00
2013-9-28,71.2,57.7,44.8,59.0,52.2,44.0,99,84,57,30.34,30.27,0,-536,0,0.00
2013-9-29,67.8,54.1,45.2,57.0,48.6,45.0,99,85,46,30.27,30.12,0,-670,0,0.00
2013-9-30,70.5,55.6,43.3,54.0,49.7,43.0,99,83,51,30.12,29.98,0,-536,0,0.00
2013-10-1,76.1,60.9,44.1,61.0,53.8,44.0,99,80,53,30.00,29.89,0,-536,0,0.00
2013-10-2,77.8,66.0,52.0,64.0,59.4,51.0,98,80,59,30.00,29.88,0,-552,0,0.00
2013-10-3,75.2,62.4,48.6,57.0,52.4,47.0,96,73,38,30.11,30.00,0,-531,0,0.00
2013-10-4,70.3,58.3,49.7,64.0,56.1,49.0,99,92,79,30.09,30.03,0,-648,0,0.00
2013-10-5,72.0,62.8,57.8,65.0,60.5,56.0,98,92,78,30.13,30.06,0,-736,0,0.02
2013-10-6,61.4,58.7,56.4,61.0,58.0,56.0,99,98,96,30.19,30.10,0,-999,0,0.02
2013-10-7,74.9,66.3,58.4,71.0,65.0,56.0,100,95,85,30.10,29.85,0,-778,0,0.11
2013-10-8,66.0,56.5,47.0,55.0,46.9,43.0,89,72,43,30.37,29.94,0,-562,0,0.11
2013-10-9,63.0,52.4,42.8,49.0,44.9,41.0,94,77,56,30.46,30.36,0,-562,0,0.00
2013-10-10,63.1,54.5,47.2,56.0,51.2,45.0,96,89,76,30.35,30.15,0,-589,0,0.00
2013-10-11,67.9,59.3,52.3,60.0,54.4,46.0,97,84,70,30.15,30.08,0,-610,0,0.00
2013-10-12,68.3,57.8,51.4,59.0,52.3,45.0,92,82,72,30.36,30.13,0,-604,0,0.00
2013-10-13,58.7,53.1,44.0,52.0,49.2,43.0,95,87,76,30.43,30.34,0,-614,0,0.00
2013-10-14,62.6,48.4,35.1,51.0,43.9,35.0,99,86,54,30.41,30.27,0,-593,0,0.00
2013-10-15,69.0,54.7,44.2,55.0,48.8,44.0,99,82,57,30.29,30.17,0,-574,0,0.00
2013-10-16,63.7,54.9,46.8,57.0,51.8,46.0,97,90,75,30.18,29.93,0,-676,0,0.00
2013-10-17,70.1,61.1,52.3,63.0,58.9,52.0,99,93,76,29.93,29.74,0,-831,0,0.00
2013-10-18,66.1,60.5,52.4,62.0,52.1,41.0,98,75,51,29.95,29.65,0,-593,0,0.00
2013-10-19,63.4,52.3,38.4,50.0,44.8,37.0,98,77,53,30.01,29.76,0,-614,0,0.00
2013-10-20,61.2,53.5,42.3,53.0,41.3,35.0,95,66,38,30.06,29.73,0,-583,0,0.00
2013-10-21,66.3,49.5,33.7,46.0,40.5,33.0,97,75,42,30.16,30.02,0,-591,0,0.00
2013-10-22,68.0,52.4,40.2,56.0,47.3,39.0,98,84,55,30.02,29.74,0,-656,0,0.00
2013-10-23,48.3,43.1,33.7,42.0,37.7,33.0,97,82,67,29.82,29.62,0,-624,0,0.00
2013-10-24,50.7,43.4,37.2,36.0,31.9,27.0,87,66,43,29.95,29.71,0,-666,0,0.00
2013-10-25,49.5,42.1,36.1,35.0,30.5,29.0,79,64,50,30.20,29.95,0,-578,0,0.00
2013-10-26,53.5,43.2,28.8,40.0,33.1,27.0,95,70,42,30.20,29.91,0,-578,0,0.00
2013-10-27,55.0,47.6,40.0,39.0,34.6,30.0,85,62,43,30.11,29.86,0,-572,0,0.00
2013-10-28,58.8,44.0,28.3,38.0,33.1,27.0,96,69,42,30.36,30.11,0,-591,0,0.00
2013-10-29,50.8,40.8,33.5,32.0,27.9,26.0,80,61,40,30.45,30.36,0,-684,0,0.00
2013-10-30,51.7,41.6,31.9,43.0,36.8,28.0,94,83,66,30.38,30.23,0,-780,0,0.00
2013-10-31,62.5,49.4,34.0,61.0,48.1,33.0,99,95,88,30.27,29.83,0,-884,0,0.01
2013-11-1,66.6,62.4,57.8,63.0,59.3,55.0,97,89,78,29.82,29.53,0,-915,0,0.07
2013-11-2,66.5,56.0,46.4,55.0,46.1,42.0,94,72,43,29.75,29.61,0,-624,0,0.07
2013-11-3,50.8,42.7,31.7,46.0,32.6,19.0,88,69,48,30.44,29.76,0,-829,0,0.00
2013-11-4,44.0,34.6,28.1,22.0,18.4,16.0,78,54,33,30.72,30.45,0,-610,0,0.00
2013-11-5,52.5,38.3,26.0,39.0,31.6,22.0,92,78,54,30.72,30.54,0,-616,0,0.00
2013-11-6,59.9,48.7,35.2,52.0,44.0,34.0,97,85,61,30.54,30.09,0,-599,0,0.00
2013-11-7,63.2,53.2,40.3,60.0,50.6,34.0,98,91,79,30.08,29.71,0,-895,0,0.22
2013-11-8,48.5,40.2,34.5,34.0,30.7,25.0,91,70,51,30.15,29.86,0,-635,0,0.22
2013-11-9,45.0,38.4,31.9,34.0,28.5,25.0,83,68,50,30.26,30.05,0,-614,0,0.00
2013-11-10,57.6,46.5,39.8,42.0,38.1,34.0,87,73,48,30.04,29.77,0,-747,0,0.00
2013-11-11,52.3,45.3,39.9,36.0,32.2,28.0,75,61,46,30.16,29.95,0,-305,0,0.00
2013-11-12,49.6,35.4,26.8,39.0,27.1,18.0,94,73,56,30.23,29.92,0,-73,0,0.02
2013-11-13,36.3,29.3,23.4,18.0,16.3,13.0,75,59,39,30.33,30.22,0,-458,0,0.00
2013-11-14,50.1,39.5,28.3,26.0,21.4,16.0,72,50,34,30.23,30.11,0,-291,0,0.00
2013-11-15,55.8,40.5,30.9,36.0,22.4,16.0,90,51,27,30.25,30.17,0,-61,0,0.00
2013-11-16,60.1,46.6,36.0,43.0,36.8,30.0,96,71,45,30.33,30.23,0,-347,0,0.00
2013-11-17,59.1,49.1,34.5,59.0,48.4,34.0,99,97,88,30.32,29.85,0,0,0,0.06
2013-11-18,64.6,58.2,46.3,61.0,47.5,33.0,100,70,40,29.85,29.57,0,-239,0,0.45
2013-11-19,45.9,39.9,31.4,36.0,25.2,21.0,70,56,46,30.30,29.70,0,-291,0,0.00
2013-11-20,41.5,32.5,25.7,21.0,16.9,13.0,67,54,32,30.64,30.32,0,-52,0,0.00
2013-11-21,47.6,34.4,18.6,37.0,26.3,15.0,89,74,48,30.66,30.42,11,-603,0,0.00
2013-11-22,50.3,46.4,41.9,50.0,44.8,38.0,98,94,85,30.41,29.86,7,-435,0,0.05
2013-11-23,50.5,39.9,28.7,48.0,28.4,17.0,94,65,43,29.98,29.84,25,11,0,0.06
2013-11-24,28.5,23.3,20.2,14.0,6.0,-2.0,61,48,29,30.27,29.88,33,-6,0,0.00
2013-11-25,33.2,25.5,17.7,22.0,11.1,4.0,72,55,42,30.43,30.27,19,-350,0,0.00
2013-11-26,42.0,35.9,32.6,42.0,26.3,21.0,98,70,48,30.35,30.00,0,-595,0,0.03
2013-11-27,61.9,49.2,35.8,61.0,48.1,31.0,99,96,79,29.97,29.28,0,-705,0,0.48
2013-11-28,36.5,29.5,23.7,31.0,17.5,11.0,84,62,43,30.48,29.57,0,-624,0,0.48
2013-11-29,34.5,27.6,21.7,21.0,17.8,14.0,87,67,52,30.75,30.48,0,-648,0,0.00
2013-11-30,33.2,25.1,15.7,25.0,16.2,10.0,83,70,47,30.80,30.44,0,-635,0,0.00
2013-12-1,40.8,35.9,29.8,40.0,34.3,25.0,98,94,82,30.43,30.04,0,-999,0,0.00
2013-12-2,40.2,36.3,29.9,40.0,35.9,29.0,99,98,96,30.03,29.93,0,-999,0,0.00
2013-12-3,48.8,38.1,31.5,42.0,34.2,31.0,99,87,60,30.00,29.88,0,-700,0,0.00
2013-12-4,51.8,38.6,31.4,35.0,31.5,28.0,91,77,51,30.21,30.00,0,-728,0,0.00
2013-12-5,54.5,47.4,34.5,54.0,46.5,32.0,99,96,88,30.20,29.97,0,-999,0,0.00
2013-12-6,55.3,46.5,36.8,55.0,45.7,36.0,99,96,88,30.14,29.89,0,-999,0,0.50
2013-12-7,37.1,33.8,28.8,36.0,28.8,22.0,97,82,66,30.49,30.08,0,-687,0,0.69
2013-12-8,30.8,28.1,22.1,23.0,21.1,19.0,89,75,64,30.62,30.48,0,-999,0,0.00
2013-12-9,36.5,32.1,25.6,36.0,31.3,21.0,99,97,73,30.48,29.94,0,-999,0,0.07
2013-12-10,33.7,31.0,23.2,34.0,30.3,22.0,99,96,92,30.06,29.80,0,-999,0,0.04
2013-12-11,29.3,24.1,18.5,23.0,20.1,16.0,94,85,75,30.28,30.07,0,-789,0,0.04
2013-12-12,23.9,19.9,12.9,19.0,10.3,5.0,81,67,48,30.32,30.12,0,-768,0,0.00
2013-12-13,30.7,23.5,14.4,18.0,13.3,7.0,76,65,55,30.38,30.07,0,-999,0,0.00
2013-12-14,26.4,18.4,14.4,25.0,13.1,8.0,96,80,61,30.58,30.07,0,-999,0,0.00
2013-12-15,34.7,29.9,23.9,35.0,28.7,22.0,99,95,86,30.04,29.45,0,-999,0,0.16
2013-12-16,29.0,24.3,13.7,24.0,15.4,8.0,92,70,47,30.24,29.78,0,-728,0,0.16
2013-12-17,19.4,14.1,3.7,17.0,11.7,1.0,93,90,79,30.27,29.95,0,-999,0,0.00
2013-12-18,33.0,25.6,18.2,24.0,20.4,16.0,93,81,67,30.14,29.91,21,-705,0,0.06
2013-12-19,43.4,34.2,23.4,29.0,25.4,19.0,84,71,54,30.16,30.01,16,-702,0,0.18
2013-12-20,51.0,39.9,29.3,38.0,32.9,27.0,91,77,57,30.14,29.97,10,-737,0,0.02
2013-12-21,55.5,48.1,42.1,51.0,45.2,38.0,97,90,76,30.02,29.91,0,-999,0,0.02
2013-12-22,62.5,59.5,52.5,60.0,57.0,51.0,97,91,81,29.97,29.82,0,-999,0,0.00
2013-12-23,58.2,45.6,38.3,55.0,44.6,34.0,99,96,85,30.11,29.92,0,-999,0,0.58
2013-12-24,37.7,32.4,24.7,33.0,23.0,11.0,88,69,51,30.27,30.06,0,-999,0,0.58
2013-12-25,25.0,20.4,15.4,13.0,8.5,6.0,76,61,45,30.55,30.27,13,-779,0,0.00
2013-12-26,34.1,26.9,20.0,31.0,22.1,13.0,90,82,71,30.48,30.13,0,-999,0,0.00
2013-12-27,36.0,29.5,23.6,24.0,22.6,21.0,92,76,57,30.33,30.24,0,-999,0,0.00
2013-12-28,28.0,27.3,26.7,24.0,22.8,22.0,85,83,80,30.28,30.23,0,-999,0,0.00